South Lake Tahoe, CA

5:23 PM PST on November 19, 2019 (GMT -0800)
Lake Tahoe

Weather History for KTVL - October, 2019

Change the Weather History Date:

Tuesday, October 22, 2019

  Actual Average Record
Temperature  
Mean Temperature 46 °F 44 °F  
Max Temperature 66 °F 61 °F 76 °F (1988)
Min Temperature 25 °F 27 °F 17 °F (1974)
Degree Days  
Heating Degree Days 20 21  
Month to date heating degree days 467 402  
Since 1 July heating degree days 1078 1028  
Cooling Degree Days 0 0  
Month to date cooling degree days 0 0  
Year to date cooling degree days 20 31  
Moisture  
Dew Point 26 °F    
Average Humidity 58    
Maximum Humidity 88    
Minimum Humidity 24    
Precipitation  
Precipitation 0.00 in - 1.14 in (1931)
Month to date precipitation T  
Year to date precipitation 18.02  
Sea Level Pressure  
Sea Level Pressure 30.36 in    
Wind  
Wind Speed 2 mph ()    
Max Wind Speed 10 mph    
Max Gust Speed 14 mph    
Visibility 9.9 miles    
Events      
T = Trace of Precipitation, MM = Missing Value Source: Averaged Metar Reports

Daily Weather History Graph

Daily Weather History Graph

Search for Another Location

Airport or City:

Astronomy

Oct. 22, 2019 Rise Set
Actual Time 7:16 AM PDT 6:11 PM PDT
Civil Twilight 6:49 AM PDT 6:39 PM PDT
Nautical Twilight 6:18 AM PDT 7:10 PM PDT
Astronomical Twilight 5:47 AM PDT 7:40 PM PDT
Moon 12:36 AM PDT (10/22) 3:20 PM PDT (10/22)
Length of Visible Light 11h 49m
Length of Day
10h 55m
Last Quarter, 36% of the Moon is Illuminated
Oct 22
Last Quarter
Oct 27
New
Nov 4
First Quarter
Nov 12
Full
Nov 19
Last Quarter

Hourly Weather History & Observations

Time (PDT) Temp. Windchill Dew Point Humidity Pressure Visibility Wind Dir Wind Speed Gust Speed Precip Events Conditions
12:53 AM 30.0 °F - 24.1 °F 79% 30.39 in 10.0 mi Calm Calm - N/A   Clear
1:53 AM 28.0 °F 24.2 °F 23.0 °F 81% 30.38 in 10.0 mi South 3.5 mph - N/A   Clear
2:53 AM 28.0 °F 22.8 °F 23.0 °F 81% 30.38 in 10.0 mi South 4.6 mph - N/A   Clear
3:53 AM 28.0 °F 24.2 °F 21.9 °F 78% 30.37 in 10.0 mi South 3.5 mph - N/A   Clear
4:53 AM 27.0 °F 23.0 °F 21.9 °F 81% 30.38 in 10.0 mi SSW 3.5 mph - N/A   Clear
5:53 AM 27.0 °F 23.0 °F 21.9 °F 81% 30.40 in 10.0 mi South 3.5 mph - N/A   Clear
6:53 AM 25.0 °F 20.7 °F 19.9 °F 81% 30.43 in 10.0 mi South 3.5 mph - N/A   Clear
7:53 AM 25.0 °F 19.3 °F 21.0 °F 85% 30.45 in 10.0 mi South 4.6 mph - N/A   Clear
8:53 AM 33.1 °F - 24.1 °F 70% 30.46 in 10.0 mi Calm Calm - N/A   Clear
9:53 AM 48.0 °F - 28.0 °F 46% 30.42 in 10.0 mi South 3.5 mph - N/A   Clear
10:53 AM 55.9 °F - 30.9 °F 39% 30.38 in 10.0 mi Calm Calm - N/A   Clear
11:53 AM 60.1 °F - 35.1 °F 39% 30.38 in 10.0 mi Variable 4.6 mph - N/A   Clear
12:53 PM 59.0 °F - 36.0 °F 42% 30.38 in 10.0 mi Variable 3.5 mph - N/A   Clear
1:53 PM 64.9 °F - 28.9 °F 26% 30.32 in 10.0 mi NE 5.8 mph - N/A   Clear
2:53 PM 64.9 °F - 27.0 °F 24% 30.31 in 10.0 mi Variable 5.8 mph - N/A   Clear
3:53 PM 64.9 °F - 28.0 °F 25% 30.30 in 10.0 mi Variable 4.6 mph - N/A   Clear
4:53 PM 63.0 °F - 28.9 °F 28% 30.30 in 10.0 mi Calm Calm - N/A   Clear
5:53 PM 54.0 °F - 28.9 °F 38% 30.30 in 10.0 mi Calm Calm - N/A   Clear
6:53 PM 46.9 °F - 28.0 °F 48% 30.35 in 10.0 mi Calm Calm - N/A   Clear
7:53 PM 44.1 °F - 28.0 °F 53% 30.35 in 10.0 mi Calm Calm - N/A   Clear
8:53 PM 39.9 °F 37.8 °F 28.0 °F 63% 30.35 in 10.0 mi SSW 3.5 mph - N/A   Clear
9:53 PM 37.0 °F 33.3 °F 27.0 °F 67% 30.31 in 10.0 mi SSW 4.6 mph - N/A   Clear
10:53 PM 35.1 °F - 26.1 °F 70% 30.29 in 10.0 mi Calm Calm - N/A   Clear
11:53 PM 34.0 °F 31.0 °F 25.0 °F 70% 30.28 in 8.0 mi SW 3.5 mph - N/A   Clear